Temp
13 14 13 13 13 13 13 13 13 13 13 13 12 12 11 10 9 9 8 7 7 7 6 6 7 7 7 6 6 7 7 9 12 12 12 12 12 12 13 12 12 13 13
12 12 12 12 12 12 12 12 12 12 12 12 11 11 10 8 9 7 7 6 6 6 6 5 5 5 5 5 5 5 6 6 7 11 11 11 11 12 12 13 12 12 13
12 11 12 12 12 12 11 11 11 11 11 11 10 9 8 7 7 6 6 6 5 5 4 4 4 4 4 4 4 4 4 5 5 6 7 9 9 11 11 12 13 12 12
11 11 11 12 11 11 11 11 11 11 10 10 9 8 7 6 6 6 6 5 4 4 3 3 3 3 3 3 4 4 5 5 5 5 5 5 7 10 12 11 12 12 12
10 11 11 11 11 10 10 10 10 10 10 9 8 7 5 5 5 5 5 4 4 3 3 3 3 3 3 3 3 3 4 4 5 5 5 4 5 7 10 11 11 11 12
10 10 10 10 10 10 9 10 10 10 9 8 7 5 4 4 4 4 4 4 3 3 2 2 2 3 3 3 3 3 3 3 3 4 4 5 5 5 7 9 10 11 11
9 9 9 9 9 9 9 9 9 9 8 7 6 4 4 3 4 3 3 2 2 1 1 1 2 2 2 3 3 3 2 2 1 2 3 4 5 5 6 6 8 10 11
8 8 8 8 8 8 8 8 8 8 8 5 5 5 3 2 2 1 2 1 1 -0 0 1 1 1 1 1 1 1 2 2 1 1 2 1 2 3 5 6 6 7 9
7 7 7 7 8 8 8 8 8 8 8 7 6 5 4 3 1 -0 1 -0 -1 -1 -1 -0 -0 -0 -0 -0 -0 -0 -0 0 -0 0 1 0 1 2 4 4 5 6 6
7 7 7 7 7 7 7 7 7 7 7 7 6 6 5 5 3 0 -0 -1 -2 -3 -3 -2 -1 -1 -2 -2 -3 -4 -2 -1 -1 -2 -1 -0 -0 1 2 4 4 4 5
6 6 6 6 6 6 6 6 6 6 6 6 6 6 4 4 4 2 -1 -2 -3 -3 -3 -4 -3 -3 -4 -4 -4 -5 -3 -3 -2 -2 -1 -1 -1 0 1 1 3 4 4
6 5 5 5 5 5 5 5 6 5 5 4 4 4 4 4 3 3 -1 -3 -3 -3 -3 -4 -3 -2 -4 -5 -5 -5 -5 -3 -3 -3 -2 -1 -1 -1 -0 0 1 2 3
5 5 4 5 5 4 5 5 5 4 4 3 3 3 3 3 3 2 -1 -2 -3 -4 -4 -3 -3 -3 -4 -6 -6 -6 -6 -6 -4 -3 -4 -2 -2 -2 -2 -1 -1 -0 1
4 4 4 4 4 4 4 4 3 3 2 2 2 2 2 2 1 1 0 -1 -3 -4 -4 -5 -4 -3 -4 -4 -6 -6 -7 -7 -7 -5 -5 -5 -3 -2 -2 -2 -2 -1 -0
4 4 4 4 4 3 3 3 2 2 1 1 1 1 1 1 1 1 1 -0 -1 -4 -5 -5 -3 -4 -4 -4 -5 -7 -7 -7 -8 -7 -6 -5 -4 -4 -3 -3 -3 -3 -2
3 4 3 3 3 2 2 2 1 1 0 1 1 1 1 0 0 0 -0 -0 -1 -3 -5 -6 -5 -5 -4 -4 -5 -6 -6 -7 -6 -8 -7 -7 -6 -4 -4 -3 -3 -4 -3
3 3 3 2 2 2 1 1 1 0 -0 0 0 -0 -0 -0 -0 -1 -1 -1 -2 -3 -5 -6 -5 -4 -4 -4 -5 -5 -6 -6 -7 -7 -8 -7 -6 -6 -5 -4 -4 -4 -4
3 3 2 2 1 1 0 -0 0 0 -0 -0 0 -1 -1 -1 -1 -1 -2 -3 -3 -4 -5 -4 -4 -4 -4 -5 -5 -6 -6 -6 -6 -7 -7 -7 -7 -7 -6 -5 -5 -5 -4
2 2 1 1 0 0 -0 -1 -1 -0 -1 -0 -0 -1 -1 -1 -1 -2 -3 -4 -4 -4 -4 -4 -5 -5 -5 -5 -6 -6 -6 -6 -7 -7 -7 -7 -7 -8 -8 -7 -7 -7 -6
1 0 0 -0 -1 -1 -1 -1 -1 -1 -1 -1 -2 -2 -1 -2 -2 -3 -4 -4 -4 -4 -4 -5 -5 -5 -5 -6 -6 -5 -5 -6 -7 -8 -8 -8 -8 -9 -8 -8 -9 -9 -8
-1 -1 -1 -1 -1 -2 -2 -2 -2 -2 -1 -1 -2 -2 -2 -3 -3 -4 -5 -5 -5 -5 -5 -5 -5 -5 -5 -5 -5 -7 -7 -7 -8 -8 -8 -9 -8 -9 -9 -9 -11 -10 -10
-2 -2 -2 -2 -2 -2 -3 -3 -3 -2 -2 -3 -3 -3 -3 -3 -3 -4 -5 -5 -5 -6 -6 -6 -6 -6 -6 -7 -7 -7 -7 -6 -7 -9 -9 -9 -10 -10 -10 -11 -12 -12 -12
-3 -2 -3 -3 -3 -3 -3 -3 -3 -2 -2 -3 -4 -3 -3 -4 -5 -6 -5 -6 -7 -7 -7 -8 -8 -8 -8 -8 -9 -8 -8 -9 -10 -10 -10 -9 -10 -11 -11 -12 -13 -13 -12
-3 -3 -3 -4 -4 -4 -4 -3 -3 -3 -4 -5 -5 -4 -4 -5 -6 -7 -7 -8 -7 -8 -8 -9 -10 -11 -12 -11 -10 -10 -10 -10 -10 -11 -10 -10 -11 -11 -12 -12 -12 -11 -11
-4 -4 -4 -4 -4 -5 -6 -5 -4 -4 -5 -6 -6 -5 -5 -6 -7 -7 -8 -8 -9 -9 -10 -12 -11 -12 -12 -12 -11 -11 -10 -10 -10 -11 -12 -12 -12 -11 -12 -13 -13 -12 -12
-4 -5 -5 -5 -5 -5 -6 -6 -6 -5 -5 -5 -5 -6 -6 -7 -7 -7 -8 -8 -9 -9 -10 -10 -11 -12 -12 -12 -13 -13 -13 -12 -13 -12 -13 -13 -13 -13 -12 -13 -14 -13 -12
Height
1514 1515 1515 1516 1517 1519 1520 1520 1520 1520 1519 1518 1517 1516 1515 1514 1514 1513 1511 1510 1510 1509 1509 1509 1509 1508 1507 1506 1505 1504 1502 1501 1502 1503 1505 1503 1505 1505 1507 1509 1511 1513 1514
1513 1513 1514 1515 1517 1517 1518 1518 1519 1518 1518 1517 1516 1515 1514 1513 1514 1514 1512 1511 1510 1509 1508 1508 1508 1507 1505 1504 1503 1502 1500 1499 1496 1496 1498 1498 1498 1499 1501 1503 1504 1506 1509
1511 1512 1513 1514 1515 1516 1517 1517 1517 1517 1516 1515 1515 1513 1513 1514 1514 1514 1513 1511 1510 1508 1506 1506 1506 1506 1504 1503 1501 1500 1499 1497 1496 1494 1492 1492 1491 1493 1493 1496 1498 1499 1501
1511 1511 1512 1513 1515 1515 1515 1516 1516 1515 1514 1513 1514 1512 1511 1513 1514 1513 1513 1511 1510 1508 1506 1504 1504 1504 1503 1501 1500 1499 1497 1496 1494 1492 1490 1488 1487 1485 1487 1488 1490 1492 1494
1509 1510 1511 1512 1513 1514 1514 1514 1514 1514 1513 1512 1511 1511 1512 1512 1513 1513 1512 1510 1508 1507 1505 1504 1502 1501 1501 1500 1498 1496 1495 1494 1492 1490 1488 1486 1483 1481 1480 1482 1484 1484 1486
1507 1508 1510 1511 1512 1512 1512 1512 1513 1512 1511 1511 1511 1511 1511 1512 1512 1512 1511 1510 1508 1505 1504 1502 1501 1499 1497 1496 1496 1495 1492 1490 1489 1486 1485 1483 1481 1479 1477 1476 1476 1477 1476
1506 1507 1509 1510 1510 1511 1510 1511 1511 1511 1509 1509 1509 1511 1512 1512 1512 1511 1511 1509 1507 1505 1503 1501 1498 1497 1496 1494 1492 1492 1491 1486 1485 1482 1482 1480 1477 1476 1473 1472 1471 1471 1471
1506 1507 1508 1508 1509 1509 1508 1508 1508 1509 1508 1508 1509 1509 1510 1512 1510 1510 1510 1508 1506 1505 1502 1500 1499 1495 1495 1492 1491 1488 1488 1484 1482 1481 1477 1478 1474 1471 1470 1467 1466 1464 1464
1505 1506 1507 1507 1508 1507 1507 1506 1506 1506 1505 1506 1506 1507 1507 1507 1508 1509 1508 1508 1507 1503 1503 1501 1498 1495 1493 1493 1489 1486 1486 1482 1480 1479 1476 1475 1471 1467 1466 1465 1462 1461 1461
1503 1504 1505 1505 1507 1507 1505 1504 1503 1503 1503 1503 1504 1504 1504 1504 1506 1509 1509 1509 1506 1505 1504 1501 1499 1496 1494 1491 1489 1489 1486 1483 1481 1478 1474 1471 1469 1465 1463 1461 1457 1456 1454
1501 1502 1503 1504 1504 1504 1503 1502 1502 1502 1501 1502 1503 1503 1503 1503 1503 1504 1506 1508 1507 1507 1505 1503 1500 1496 1494 1492 1491 1489 1485 1483 1480 1476 1472 1469 1466 1463 1460 1457 1454 1452 1449
1500 1501 1502 1502 1502 1502 1502 1501 1500 1501 1500 1501 1502 1502 1502 1503 1503 1502 1503 1507 1506 1507 1506 1504 1499 1497 1495 1494 1492 1489 1486 1482 1479 1476 1473 1469 1465 1463 1458 1455 1452 1448 1444
1498 1499 1500 1500 1500 1500 1500 1500 1499 1500 1501 1501 1501 1502 1502 1503 1502 1501 1503 1504 1506 1507 1505 1502 1499 1498 1497 1495 1492 1490 1487 1484 1480 1477 1473 1469 1466 1461 1457 1453 1450 1446 1441
1497 1498 1498 1498 1498 1499 1499 1499 1499 1500 1501 1502 1502 1502 1502 1502 1502 1503 1503 1503 1504 1505 1505 1503 1501 1499 1496 1494 1492 1491 1488 1485 1481 1477 1473 1469 1465 1461 1457 1452 1448 1445 1440
1495 1495 1495 1496 1497 1498 1498 1500 1500 1500 1501 1503 1503 1502 1503 1503 1503 1503 1503 1503 1502 1504 1504 1502 1500 1499 1496 1494 1492 1491 1489 1485 1482 1478 1474 1469 1465 1461 1457 1452 1448 1444 1439
1492 1493 1494 1495 1496 1497 1498 1499 1500 1502 1503 1503 1503 1504 1504 1504 1504 1504 1503 1503 1503 1503 1503 1502 1500 1498 1496 1494 1492 1491 1488 1485 1482 1478 1474 1470 1465 1461 1456 1452 1447 1444 1440
1490 1491 1492 1493 1496 1496 1497 1498 1500 1502 1503 1503 1503 1504 1504 1504 1504 1504 1503 1504 1503 1503 1502 1501 1501 1499 1496 1494 1493 1490 1488 1485 1482 1478 1475 1471 1466 1462 1457 1453 1449 1445 1440
1487 1489 1491 1492 1494 1495 1496 1499 1501 1501 1503 1503 1503 1504 1504 1504 1504 1504 1504 1504 1504 1504 1503 1501 1499 1498 1496 1493 1492 1490 1487 1485 1482 1478 1475 1472 1467 1463 1459 1454 1450 1446 1442
1485 1487 1489 1491 1493 1495 1496 1498 1500 1501 1502 1503 1503 1504 1504 1504 1505 1505 1505 1505 1505 1503 1502 1500 1498 1497 1496 1494 1492 1490 1487 1484 1481 1478 1476 1472 1468 1464 1460 1456 1451 1447 1442
1483 1484 1487 1490 1492 1494 1496 1497 1499 1500 1501 1502 1504 1505 1505 1505 1505 1505 1506 1506 1505 1503 1502 1500 1499 1497 1495 1493 1491 1490 1487 1483 1481 1479 1476 1472 1468 1465 1461 1457 1453 1449 1444
1480 1483 1486 1488 1491 1493 1495 1496 1498 1499 1500 1502 1504 1504 1505 1505 1505 1505 1506 1505 1504 1504 1502 1500 1499 1497 1495 1492 1489 1487 1485 1483 1480 1478 1476 1472 1468 1466 1462 1458 1455 1451 1446
1478 1481 1485 1487 1489 1491 1493 1495 1497 1498 1500 1502 1503 1504 1504 1504 1505 1506 1506 1504 1504 1503 1501 1500 1498 1496 1494 1492 1489 1486 1484 1481 1479 1478 1474 1472 1469 1466 1463 1459 1457 1452 1448
1476 1479 1483 1485 1488 1490 1492 1494 1496 1497 1499 1502 1502 1502 1503 1504 1504 1505 1505 1503 1503 1502 1500 1499 1497 1495 1493 1491 1490 1486 1483 1480 1478 1476 1474 1471 1468 1465 1463 1460 1457 1453 1449
1473 1478 1481 1483 1486 1488 1490 1492 1495 1496 1499 1501 1501 1501 1502 1502 1503 1504 1504 1504 1503 1502 1500 1498 1496 1494 1492 1490 1488 1485 1483 1480 1478 1475 1473 1470 1468 1465 1462 1459 1457 1453 1450
1471 1476 1479 1481 1484 1486 1489 1491 1493 1494 1497 1499 1500 1501 1501 1503 1503 1503 1502 1502 1501 1500 1499 1497 1495 1494 1492 1489 1486 1485 1482 1479 1476 1474 1472 1470 1467 1464 1462 1459 1456 1453 1450
1470 1474 1477 1481 1483 1485 1487 1489 1492 1493 1496 1498 1499 1499 1500 1502 1503 1502 1502 1501 1500 1499 1498 1496 1495 1493 1490 1487 1485 1482 1480 1478 1476 1474 1473 1471 1468 1464 1462 1459 1456 1453 1450
Wind_Speed
12 10 8 7 7 7 5 3 2 1 2 2 3 4 3 3 3 5 4 4 6 7 11 9 8 6 6 7 8 13 13 14 23 27 28 18 27 32 30 29 29 29 29
11 9 9 9 8 6 4 3 1 1 1 2 2 2 2 2 3 4 5 8 10 9 9 7 3 5 8 12 13 13 12 12 11 21 24 32 20 25 31 31 31 31 32
11 11 10 8 6 4 3 1 0 1 1 1 2 2 3 3 3 4 6 8 8 9 9 8 8 9 11 13 15 16 15 14 16 15 15 22 28 34 22 32 33 31 34
11 10 9 7 5 4 3 2 1 0 1 2 4 5 4 2 2 5 7 8 9 11 11 11 12 11 12 13 14 14 14 14 16 16 16 14 18 34 40 24 26 33 33
10 10 8 7 5 4 3 3 1 1 2 4 8 7 6 2 1 3 6 8 11 10 10 11 11 12 13 14 15 15 18 19 19 18 18 18 18 27 34 36 30 24 35
11 10 9 7 6 4 3 2 1 1 2 8 10 9 7 4 2 4 8 10 12 11 10 10 11 12 10 12 15 17 16 16 16 18 21 20 22 21 18 28 34 34 23
11 10 9 8 5 3 4 3 2 3 5 11 13 11 8 4 2 4 7 10 12 12 11 12 14 13 11 10 11 14 15 15 15 15 20 23 22 23 25 20 21 37 38
11 10 7 5 5 3 2 2 1 4 9 15 14 11 7 2 3 7 9 10 11 12 12 13 13 13 13 13 13 12 11 14 16 19 17 18 17 16 25 27 23 21 30
10 8 6 5 3 3 3 3 2 3 5 8 14 9 6 6 4 2 7 8 11 13 15 15 14 14 14 13 13 15 14 14 14 16 16 19 19 18 22 23 25 25 21
10 8 6 5 4 4 3 2 1 2 3 5 6 5 6 6 5 5 3 7 11 17 20 20 18 17 16 17 16 18 16 15 15 15 15 15 16 18 18 21 24 27 29
10 8 7 6 4 3 3 2 1 1 3 5 6 6 5 4 6 7 9 7 10 11 15 20 19 18 17 18 19 18 18 18 17 17 16 17 17 16 17 17 20 26 28
11 9 7 5 4 3 3 2 2 2 3 4 6 5 4 4 6 7 14 11 9 6 9 15 17 15 15 16 17 19 19 19 19 20 20 18 17 16 16 16 16 17 22
11 9 7 6 5 5 4 2 2 1 3 4 7 7 6 6 8 10 12 11 7 4 6 12 16 16 11 10 14 16 17 21 23 22 20 20 20 18 17 17 18 17 16
10 9 8 7 7 6 5 3 3 3 4 5 7 10 10 11 10 10 9 9 8 5 5 11 14 14 12 11 12 13 15 18 20 23 22 22 23 22 18 17 18 19 19
11 10 9 9 8 7 6 5 4 3 4 6 7 8 8 10 10 10 9 7 5 4 2 9 9 14 13 10 11 11 12 16 17 21 22 22 22 23 24 19 17 18 19
13 11 11 10 9 8 7 6 5 6 5 6 6 6 6 7 6 7 6 6 7 4 2 4 10 14 13 10 10 11 11 13 18 15 20 22 22 24 24 23 20 16 18
13 12 11 10 10 10 9 7 8 8 8 8 7 6 5 5 4 4 4 4 5 4 3 3 8 10 9 8 8 9 9 10 17 16 18 22 23 23 24 22 22 19 17
14 13 12 12 11 11 11 10 10 10 9 10 9 8 7 7 5 3 2 1 3 3 3 5 7 8 10 9 9 8 9 9 12 16 17 20 22 22 22 23 23 22 19
15 14 13 13 13 12 13 13 12 12 12 11 11 10 9 8 6 5 3 1 2 5 6 7 7 8 8 6 7 7 9 8 9 14 16 19 20 20 20 23 23 24 23
15 15 14 14 14 15 15 15 15 14 14 12 12 10 8 7 7 6 4 3 5 6 6 6 5 7 9 9 8 6 8 8 7 12 15 16 18 17 19 21 24 24 23
16 15 16 17 17 17 17 17 16 15 13 11 11 9 6 6 5 5 6 6 6 6 6 6 5 6 8 11 13 13 11 9 10 12 15 14 15 14 17 20 24 24 23
19 17 18 18 19 20 21 18 15 14 13 11 10 7 5 4 4 5 4 6 7 8 8 7 7 7 8 10 12 14 13 13 12 13 16 13 9 10 14 18 22 23 23
21 21 22 21 21 20 19 19 17 13 11 10 7 5 4 2 3 3 5 8 9 9 8 10 11 11 12 13 12 12 14 14 11 14 14 11 7 7 10 12 20 21 22
23 24 24 22 21 21 20 18 15 12 10 8 5 3 2 1 2 4 4 5 7 7 7 9 10 12 14 15 14 13 12 11 9 8 14 12 10 5 8 13 17 21 21
26 25 23 21 21 22 21 18 14 11 9 7 5 3 2 1 3 4 5 6 5 5 6 4 6 9 11 14 14 11 10 11 9 6 14 14 16 8 2 14 17 18 18
25 23 21 16 20 22 21 19 14 11 10 8 6 3 3 3 2 3 4 6 6 5 6 7 9 11 13 13 11 12 12 11 11 5 12 13 15 15 3 10 15 18 19
Wind_Direction
227 229 216 204 197 194 196 194 200 261 352 353 338 356 6 12 8 0 0 342 355 357 51 58 73 62 19 18 20 21 7 290 255 248 254 263 251 248 240 240 242 242 239
217 208 202 195 192 189 185 183 206 306 19 4 17 11 49 34 25 28 6 341 339 326 325 349 338 9 345 341 344 1 356 356 332 252 247 254 270 249 246 242 239 242 241
205 197 197 195 191 195 193 187 298 352 25 35 85 116 98 57 44 15 359 350 345 344 339 325 330 337 334 336 341 341 330 334 351 344 279 249 255 254 247 243 239 238 238
193 191 195 199 198 204 208 208 233 148 103 113 131 138 142 123 3 345 347 352 360 349 342 353 345 349 332 326 326 324 329 330 334 333 342 315 269 249 252 255 240 236 237
191 198 201 202 203 206 219 232 205 132 166 141 157 152 151 152 14 11 356 353 356 348 340 338 333 339 337 338 332 320 310 308 309 311 323 322 325 268 253 251 252 236 235
193 199 202 207 207 209 222 244 253 153 143 145 159 153 158 149 95 357 1 357 0 1 4 1 354 351 339 330 331 329 327 315 325 316 303 304 309 312 301 264 255 251 246
193 202 206 208 208 207 220 222 174 133 136 152 169 152 143 127 72 30 19 11 13 17 10 9 11 7 3 354 349 340 341 336 344 333 310 307 298 295 299 293 280 261 250
198 205 207 212 223 236 258 268 218 152 139 163 169 166 157 162 8 26 13 20 25 23 19 15 4 1 358 0 359 349 351 348 2 7 343 348 328 313 292 287 286 280 264
192 196 202 212 232 249 255 250 218 170 167 163 188 203 190 194 177 31 3 27 39 35 27 22 20 18 13 10 9 11 11 4 8 355 342 352 342 309 296 291 288 283 281
189 191 201 220 234 249 265 264 234 159 158 180 183 188 201 186 172 158 46 66 49 39 26 28 28 30 28 25 25 22 17 13 16 18 12 359 347 338 307 291 291 289 281
189 193 200 214 223 235 261 272 268 161 170 180 189 186 171 162 151 157 129 105 71 38 24 16 19 25 28 25 19 21 15 17 13 6 6 10 4 350 338 319 291 287 288
191 190 196 201 223 226 237 235 245 154 139 148 153 169 189 193 149 141 124 110 94 37 9 359 9 19 22 25 16 8 10 10 13 8 3 359 1 4 357 342 332 307 288
191 193 192 205 210 221 226 237 239 148 125 130 128 141 133 124 111 108 128 119 121 76 0 348 5 5 17 16 15 2 10 3 5 6 4 1 1 3 5 1 357 348 332
197 196 199 201 205 214 219 217 208 180 142 133 124 115 114 103 98 95 105 121 110 87 358 344 354 13 13 3 356 4 5 6 5 11 11 13 12 3 359 3 5 1 350
201 198 202 206 209 210 210 207 187 166 151 138 130 125 117 102 96 93 88 85 85 124 347 340 12 13 8 1 353 3 1 358 5 5 11 8 11 13 8 3 9 7 2
203 205 207 203 205 202 199 191 180 163 169 158 133 119 111 104 90 77 72 62 59 97 166 358 2 358 6 4 358 357 0 7 6 6 9 9 12 10 12 9 5 11 9
207 207 205 207 202 199 191 187 182 173 166 162 142 137 124 113 91 74 54 50 39 36 85 358 353 3 6 11 8 359 356 15 19 12 10 11 13 12 11 11 11 3 10
209 206 203 203 198 196 190 187 183 172 164 155 146 143 131 113 105 89 68 24 3 30 3 358 7 15 9 8 9 3 353 351 9 15 9 8 12 14 14 14 13 13 9
212 205 197 199 193 188 184 179 174 162 155 150 141 142 131 118 112 100 94 59 29 31 18 14 14 14 12 14 5 359 356 348 7 11 6 5 7 11 15 17 15 14 14
204 201 196 193 187 183 176 170 167 160 154 149 141 134 119 114 109 103 96 82 52 31 25 25 14 13 16 16 4 11 356 359 11 11 0 359 3 3 8 15 17 15 15
201 199 197 187 182 178 172 167 162 159 158 156 149 138 130 114 94 95 90 73 49 31 21 17 12 12 8 4 2 5 7 5 352 1 5 4 0 355 2 14 13 15 14
202 196 192 188 181 173 168 164 165 163 161 154 148 138 115 82 79 79 59 56 36 20 13 18 20 17 19 13 3 355 349 351 360 350 11 5 359 354 358 13 17 15 14
202 193 188 182 177 178 178 175 173 173 168 145 134 118 100 70 42 36 29 20 8 3 0 10 7 10 9 11 7 354 354 357 353 351 4 10 359 345 356 6 13 13 13
196 191 187 185 185 183 181 182 178 170 162 148 138 116 97 23 358 339 1 358 346 346 350 3 1 1 356 353 358 1 359 354 344 349 358 6 11 306 355 352 352 356 6
190 190 189 189 190 187 180 185 177 176 179 177 171 161 156 184 274 314 322 321 330 342 350 3 325 329 333 339 345 349 350 348 357 345 359 2 4 356 259 353 347 350 359
189 184 184 183 189 191 183 183 188 191 195 189 183 190 209 210 234 276 288 294 303 315 314 311 315 324 332 338 337 344 350 356 0 355 353 360 8 10 333 351 360 357 359